Regional Weather Roundup
Issued by NWS

Home | Current Version | Previous Version | Graphics & Text | Print | Product List | Glossary On
Versions: 1 2 3 4 5 6 7 8 9 10 11 12 13 14 15 16 17 18 19 20 21 22 23 24 25 26 27 28 29 30 31 32 33 34 35 36 37 38 39 40 41 42 43 44 45 46 47 48 49 50
000
ASUS43 KTOP 201659
RWRKS

WEATHER ROUNDUP FOR KANSAS
NATIONAL WEATHER SERVICE GOODLAND KS
1100 AM CST MON FEB 20 2017

NOTE:  "FAIR" INDICATES FEW OR NO CLOUDS BELOW 12,000 FEET WITH NO
SIGNIFICANT WEATHER AND/OR OBSTRUCTIONS TO VISIBILITY.

KSZ001>006-013>018-027>032-041>047-201800-
NORTHWEST KANSAS

CITY           SKY/WX    TMP DP  RH WIND       PRES   REMARKS
GOODLAND       SUNNY     55  17  22 N33G45    29.93R
HAYS           SUNNY     60  30  32 NW26      29.81S
HILL CITY      SUNNY     60  28  29 NW25G36   29.84R
RUSSELL        MOSUNNY   59  40  49 NW17      29.79R
$$

KSZ061>065-074>080-084>089-201800-
SOUTHWEST KANSAS

CITY           SKY/WX    TMP DP  RH WIND       PRES   REMARKS
DODGE CITY     MOSUNNY   62  27  26 NW22G30   29.88R
ELKHART          N/A     57  19  22 N23         N/A
GARDEN CITY    SUNNY     61  15  16 N33G41    29.91R
GREAT BEND     CLOUDY    58  42  55 NW20      29.82R
LIBERAL        SUNNY     61  27  27 N31G39    29.93R
$$

KSZ066>073-081>083-090>101-201800-
SOUTHEAST KANSAS

CITY           SKY/WX    TMP DP  RH WIND       PRES   REMARKS
CHANUTE        CLOUDY    62  57  83 SW13      29.90R
COFFEYVILLE    CLOUDY    62  58  86 SW17      29.88F
HUTCHINSON     PTSUNNY   58  52  80 SW9       29.82R
MEDICINE LODGE   N/A     58  50  75 W9        29.83R
NEWTON         CLOUDY    57  53  86 SW14      29.85R
PARSONS        CLOUDY    62  57  83 SW9       29.91R
WICHITA INTL   CLOUDY    57  54  89 S13       29.85R
WICHITA JABRA  CLOUDY    57  53  86 S15       29.85R
WINFIELD       CLOUDY    59  55  87 SW12      29.89R
$$

KSZ007>012-019>026-033>040-048>060-102>105-201800-
NORTHEAST KANSAS

CITY           SKY/WX    TMP DP  RH WIND       PRES   REMARKS
CONCORDIA      CLOUDY    59  55  87 S10       29.76S
EMPORIA        CLOUDY    60  57  89 S9        29.85R
LAWRENCE       CLOUDY    64  58  80 S14G24    29.85R
MANHATTAN      CLOUDY    61  57  87 S14       29.80S
OLATHE IND     CLOUDY    61  57  87 S15       29.87R
OLATHE EXE     CLOUDY    59  58  96 S13       29.85R
SALINA         CLOUDY    61  54  77 S15       29.81R
TOPEKA BILLARD CLOUDY    62  58  86 S9        29.83R
TOPEKA FORBES  CLOUDY    63  58  83 S14       29.83R
$$



USA.gov is the U.S. government's official web portal to all federal, state and local government web resources and services.